Regional Weather Roundup
Issued by NWS Little Rock, AR

Home | Current Version | Previous Version | Graphics & Text | Print | Product List | Glossary On
Versions: 1 2 3 4 5 6 7 8 9 10 11 12 13 14 15 16 17 18 19 20 21 22 23 24 25 26 27 28 29 30 31 32
000
ASUS44 KLZK 230805
RWRLZK

WEATHER ROUNDUP FOR ARKANSAS
NATIONAL WEATHER SERVICE LITTLE ROCK AR
200 AM CST THU FEB 23 2017

NOTE: "FAIR" INDICATES FEW OR NO CLOUDS BELOW 12,000 FEET WITH NO
SIGNIFICANT WEATHER AND/OR OBSTRUCTIONS TO VISIBILITY.

ARZ001-003-010-029-230900-
NORTHWEST ARKANSAS

CITY           SKY/WX    TMP DP  RH WIND       PRES   REMARKS
FAYETTEVILLE   CLEAR     49  49 100 CALM      29.71F
FORT SMITH     PTCLDY    56  53  90 NE7       29.71F
HARRISON       CLEAR     53  53 100 SE7       29.73F FOG
BENTONVILLE    CLEAR     55  52  88 SE6       29.71F
ROGERS         CLEAR     56  54  93 SE7       29.72F
SILOAM SPGS    CLEAR     55  52  88 SE7       29.69F
HIGHFILL       CLEAR     54  52  93 SE5       29.70F
$$

ARZ004-005-016-230900-
NORTH CENTRAL ARKANSAS

CITY           SKY/WX    TMP DP  RH WIND       PRES   REMARKS
BATESVILLE     CLOUDY    52  50  93 SE7       29.79F VSB<1/4
FLIPPIN        CLEAR     55  50  82 CALM      29.72F
MTN HOME       CLEAR     52  52 100 SE3       29.74F FOG
$$

ARZ040-041-230900-
WEST CENTRAL ARKANSAS

CITY           SKY/WX    TMP DP  RH WIND       PRES   REMARKS
MENA           MOCLDY    54  54 100 CALM      29.76F
MOUNT IDA      MOCLDY    50  49  96 CALM      29.74F FOG
$$

ARZ009-017-025-026-028-230900-
NORTHEAST ARKANSAS

CITY           SKY/WX    TMP DP  RH WIND       PRES   REMARKS
CORNING        FAIR      54  54 100 SE6       29.79S FOG
JONESBORO      FOG       52  52 100 CALM      29.79S VSB 1/2
NEWPORT        CLEAR     52  52 100 MISG      29.79F FOG
WALNUT RIDGE     N/A     52  48  87 S8        29.78F VSB 3/4
BLYTHEVILLE    CLEAR     56  55  97 S3        29.80F
$$

ARZ022-023-033-042-044-230900-
CENTRAL ARKANSAS

CITY           SKY/WX    TMP DP  RH WIND       PRES   REMARKS
LITTLE ROCK    PTCLDY    49  49 100 CALM      29.79S FOG
N LITTLE ROCK    N/A     56  55  96 S5        29.79S
JACKSONVILLE   FOG       48  48 100 CALM      29.78F VSB<1/4
SEARCY         FOG       49  49 100 CALM      29.81S VSB 1/4
HOT SPRINGS    PTCLDY    52  51  97 CALM      29.78S
RUSSELLVILLE     N/A     53  52  96 CALM      29.75F
CLINTON        FOG       52  52 100 E3        29.78F VSB<1/4
$$

ARZ036-230900-
EAST ARKANSAS

CITY           SKY/WX    TMP DP  RH WIND       PRES   REMARKS
WEST MEMPHIS   CLEAR     55  55 100 SE5       29.79F
$$

ARZ050-053-066-070-073-230900-
SOUTHWEST ARKANSAS

CITY           SKY/WX    TMP DP  RH WIND       PRES   REMARKS
ARKADELPHIA    FAIR      50  50 100 CALM      29.78F
CAMDEN         FOG       50  48  93 MISG      29.78F VSB 1
TEXARKANA      CLEAR     58  55  90 SE7       29.75F
EL DORADO      CLEAR     53  51  93 CALM      29.79S
DE QUEEN       PTCLDY    50  50 100 E3        29.73F FOG
$$

ARZ056-057-069-230900-
SOUTHEAST ARKANSAS

CITY           SKY/WX    TMP DP  RH WIND       PRES   REMARKS
PINE BLUFF     FOG       50  50 100 CALM      29.79F VSB 1/2
STUTTGART      CLOUDY    54  46  76 SE5       29.80F VSB 1/2
MONTICELLO     PTCLDY    55  53  93 SE3       29.80S

$$






USA.gov is the U.S. government's official web portal to all federal, state and local government web resources and services.